[[{"header":{"parameterUnit":"m.s-1","parameterCategory":1,"la1":30.2991,"la2":30.254,"lo1":-89.0895,"lo2":-89.0444,"dy":0.0017,"dx":0.0017,"nx":28,"ny":28,"refTime":"2025-09-13T21:00:00:Z","depth":0,"parameterNumber":2,"parameterNumberName":"U-component_of_WINDS"},"data":[0,0,0,0,0,0,0,0,0,0,0,0,0,0,0,0,0,0,0,0,0,0,0,0,0,0,0,0,0,0,0,0,0,0,0,0,0,0,0,0,0,0,0,0,0,0,0,0,0,0,0,0,0,0,0,0,0,0,0.0119,0.012,0,0.0184,0.0185,0.0186,0.0222,0.0222,0.0222,0.0222,0.0289,0.029,0.0292,0,0,0,0,0,0,0,0,0,0,0,0,0,0.0026,0.0028,0.0119,0.012,0.0121,0.0184,0.0185,0.0186,0.0222,0.0222,0.0222,0.0222,0.0288,0.029,0.0292,0,0,0,0,0,0,0,0,0,0,0,0,0,0.0076,0.0028,0.0119,0.0146,0.0149,0.0184,0.0185,0.0186,0.0222,0.0222,0.0222,0.0222,0.0288,0.029,0.0292,0.0305,0,0,0.03,0.0301,0,0,0,0,0,0,0,0,0.0073,0.008,0.0141,0.0144,0.0148,0.0195,0.0177,0.0226,0.0222,0.0194,0.0222,0.0222,0.0257,0.0262,0.0274,0.0308,0.0311,0.03,0.0302,0.0303,0.0304,0,0,0,0,0,0,0,0.007,0.0077,0.0145,0.0142,0.0146,0.0155,0.0163,0.0186,0.0224,0.0197,0.0199,0.0207,0.0259,0.0272,0.0276,0.0312,0.03,0.0303,0.0304,0.0305,0.0359,0.0359,0,0,0,0,0,0,0.0062,0.0074,0.0143,0.0147,0.011,0.0157,0.0165,0.018,0.0224,0.0231,0.0206,0.0208,0.0267,0.0273,0.0279,0.0296,0.0303,0.0305,0.0307,0.036,0.0359,0.0359,0,0,0,0,0,0,0.006,0.0068,0.014,0.0111,0.0121,0.0158,0.0175,0.0181,0.0194,0.0231,0.0238,0.0212,0.0268,0.0275,0.0298,0.0299,0.0307,0.0309,0.036,0.036,0.0359,0.0331,0,0,0,0,0,0,0.0057,0.0067,0.0072,0.0111,0.0123,0.0158,0.0175,0.0182,0.0198,0.02,0.0239,0.0245,0.0268,0.0294,0.0301,0.0303,0.0311,0.036,0.036,0.0359,0.0332,0.033,0.0328,0,0,0,0,0,0.0054,0.0062,0.0072,0.008,0.013,0.0158,0.0165,0.0192,0.0198,0.0203,0.0227,0.0244,0.0298,0.0296,0.0304,0.0307,0.036,0.036,0.0359,0.0333,0.0331,0.0328,0,0,0,0,0,0,0.0022,0.0067,0.0079,0.01,0.0125,0.0164,0.0172,0.0188,0.0212,0.0214,0.0246,0.0254,0.0274,0.0293,0.029,0.0321,0.0331,0.0332,0.0308,0.0306,0.0304,0.0299,0.0313,0,0,0,0,0,0.0017,0.0036,0.0075,0.009,0.0102,0.0135,0.0148,0.0166,0.0194,0.0205,0.0231,0.0257,0.0279,0.0294,0.0317,0.0335,0.0344,0.0341,0.0339,0.0337,0.0338,0.0349,0.0348,0.0359,0.0359,0.0359,0,0,0.0007,0.0035,0.0045,0.0084,0.0106,0.0125,0.0143,0.0163,0.0178,0.0208,0.0231,0.0251,0.0282,0.0303,0.0313,0.0319,0.0337,0.0337,0.0335,0.0337,0.0349,0.0348,0.0347,0.0359,0.0359,0.0359,0,0,0.0,0.0023,0.0037,0.0059,0.0091,0.0113,0.0116,0.0153,0.0168,0.0192,0.0214,0.0232,0.0271,0.0292,0.0308,0.0309,0.0325,0.0315,0.0305,0.0316,0.0315,0.0314,0.0314,0.0314,0.0316,0.0316,0.0316,0,-0.0016,0.0014,0.0043,0.0061,0.0078,0.0105,0.012,0.014,0.0178,0.0189,0.0195,0.0244,0.0267,0.0293,0.0293,0.0305,0.031,0.0311,0.0313,0.0312,0.0312,0.0313,0.0313,0.0315,0.0315,0.0315,0.0315,0,-0.0007,0.0014,0.0022,0.0058,0.0075,0.0092,0.0123,0.0137,0.0154,0.0175,0.0199,0.0227,0.0257,0.0264,0.0281,0.0293,0.0295,0.0306,0.0317,0.0309,0.031,0.0311,0.0313,0.0313,0.0314,0.0314,0,0,-0.0033,0.0019,0.0021,0.0038,0.0076,0.0092,0.011,0.0139,0.015,0.0176,0.0192,0.0224,0.0234,0.0252,0.0272,0.0281,0.0279,0.0291,0.0292,0.0288,0.0294,0.0285,0.0285,0.029,0.0291,0.0291,0.0291,0,-0.0035,-0.0002,0.0024,0.0048,0.0067,0.0094,0.011,0.0134,0.0155,0.0174,0.0197,0.0219,0.0232,0.0243,0.0253,0.0277,0.0281,0.0278,0.0305,0.0306,0.0296,0.0285,0.0276,0.0275,0.0292,0.0292,0.0292,0,-0.0033,-0.0009,0.0016,0.0052,0.0061,0.0075,0.0103,0.0122,0.0151,0.0165,0.0185,0.0205,0.0225,0.0234,0.0262,0.0259,0.0272,0.0286,0.0286,0.029,0.0298,0.0288,0.0275,0.0275,0.0293,0.0293,0.0293,0,-0.0055,-0.0016,0.0004,0.0018,0.006,0.0069,0.0087,0.0116,0.0132,0.0157,0.0167,0.0194,0.0209,0.0229,0.0256,0.026,0.0281,0.0292,0.0294,0.0293,0.0297,0.0296,0.0286,0.0305,0.0305,0.0305,0.0305,0,-0.0061,-0.0046,-0.0005,0.0007,0.0024,0.0054,0.007,0.0091,0.0116,0.0133,0.0158,0.0173,0.0208,0.0228,0.0249,0.0269,0.0276,0.0288,0.0293,0.0285,0.0284,0.0294,0.0295,0.0306,0.0306,0.0305,0.0305,0,-0.0083,-0.0054,-0.0031,0.0008,0.0018,0.0028,0.0061,0.0074,0.0096,0.0117,0.0124,0.0158,0.0183,0.0211,0.0245,0.026,0.0278,0.0286,0.0268,0.0271,0.0271,0.027,0.0266,0.0267,0.0286,0.0286,0.0286,0,-0.0088,-0.0076,-0.0037,-0.0024,-0.0007,0.0014,0.003,0.006,0.0076,0.011,0.0118,0.0145,0.0167,0.0205,0.0233,0.0259,0.0268,0.0265,0.0272,0.0264,0.0268,0.0266,0.0268,0.0263,0.0262,0.0262,0.0262,0,-0.0101,-0.0088,-0.0066,-0.0039,-0.0021,0.0002,0.0026,0.0035,0.007,0.0086,0.0111,0.0129,0.0163,0.0189,0.0219,0.0238,0.0255,0.0259,0.0261,0.0253,0.0242,0.0248,0.0262,0.0259,0.026,0.026,0.026,0.026,-0.0115,-0.0104,-0.0074,-0.0051,-0.003,-0.0008,0.0006,0.003,0.0051,0.0082,0.0098,0.0123,0.0152,0.0193,0.0212,0.0232,0.0238,0.024,0.0241,0.0241,0.0238,0.0239,0.0237,0.0237,0.0237,0.0238,0.0238,0,-0.0127,-0.0107,-0.0085,-0.0053,-0.0035,-0.0019,0.0008,0.0022,0.0044,0.0069,0.0091,0.012,0.0145,0.0175,0.0202,0.0212,0.0221,0.0218,0.0218,0.0222,0.0231,0.0227,0.0211,0.0211,0.0211,0.0211,0.0211,0.0211,-0.0131,-0.0111,-0.0094,-0.0063,-0.0043,-0.0019,-0.0004,0.0016,0.0036,0.0067,0.0088,0.0108,0.0135,0.0164,0.0188,0.0196,0.0205,0.02,0.021,0.0219,0.0221,0.0223,0.0219,0.0201,0.0201,0.0199,0.0199,0.0199]},{"header":{"parameterUnit":"m.s-1","parameterCategory":1,"la1":30.2991,"la2":30.254,"lo1":-89.0895,"lo2":-89.0444,"dy":0.0017,"dx":0.0017,"nx":28,"ny":28,"refTime":"2025-09-13T21:00:00:Z","depth":0,"parameterNumber":3,"parameterNumberName":"V-component_of_WINDS"},"data":[0,0,0,0,0,0,0,0,0,0,0,0,0,0,0,0,0,0,0,0,0,0,0,0,0,0,0,0,0,0,0,0,0,0,0,0,0,0,0,0,0,0,0,0,0,0,0,0,0,0,0,0,0,0,0,0,0,0,1.7033,1.7033,0,1.6986,1.6985,1.6985,1.6937,1.6937,1.6936,1.6936,1.6885,1.6885,1.6884,0,0,0,0,0,0,0,0,0,0,0,0,0,1.7082,1.7081,1.7034,1.7033,1.7032,1.6986,1.6985,1.6985,1.6938,1.6937,1.6936,1.6935,1.6886,1.6885,1.6884,0,0,0,0,0,0,0,0,0,0,0,0,0,1.705,1.7081,1.7034,1.7003,1.7,1.6986,1.6985,1.6984,1.6938,1.6937,1.6936,1.6935,1.6886,1.6885,1.6884,1.6895,0,0,1.688,1.688,0,0,0,0,0,0,0,0,1.7052,1.7048,1.7008,1.7005,1.7002,1.6967,1.6984,1.6955,1.6938,1.6961,1.6936,1.6935,1.6913,1.691,1.6903,1.6893,1.6891,1.688,1.6879,1.6879,1.6879,0,0,0,0,0,0,0,1.7054,1.705,1.7015,1.7008,1.7004,1.6991,1.6986,1.6978,1.6943,1.6959,1.6956,1.6951,1.6911,1.6904,1.6901,1.689,1.688,1.6879,1.6878,1.6878,1.6886,1.6887,0,0,0,0,0,0,1.7061,1.7052,1.7016,1.7013,1.7025,1.6991,1.6985,1.6979,1.6943,1.6937,1.6952,1.6949,1.6906,1.6903,1.6899,1.6909,1.6879,1.6878,1.6877,1.6885,1.6886,1.6887,0,0,0,0,0,0,1.7063,1.7059,1.7018,1.7032,1.7026,1.6992,1.6985,1.6978,1.6971,1.6937,1.6931,1.6951,1.6905,1.6901,1.6896,1.6907,1.6877,1.6876,1.6884,1.6885,1.6886,1.693,0,0,0,0,0,0,1.7064,1.7059,1.7064,1.7032,1.7025,1.7017,1.6986,1.6978,1.697,1.6965,1.6935,1.6929,1.6904,1.6898,1.6895,1.6905,1.6875,1.6883,1.6884,1.6886,1.6928,1.6933,1.6938,0,0,0,0,0,1.7066,1.7078,1.7064,1.706,1.703,1.7018,1.7013,1.6985,1.6971,1.6974,1.6952,1.693,1.6907,1.6898,1.6894,1.6904,1.6882,1.6884,1.6886,1.6926,1.6932,1.6937,0,0,0,0,0,0,1.7111,1.7073,1.7058,1.706,1.7042,1.701,1.7014,1.6993,1.6979,1.6976,1.6941,1.6935,1.6934,1.6918,1.691,1.6912,1.6891,1.6892,1.6922,1.6928,1.6933,1.6936,1.6874,0,0,0,0,0,1.7122,1.7115,1.7082,1.7087,1.7079,1.7048,1.7042,1.7022,1.7002,1.6994,1.6972,1.6953,1.6941,1.6934,1.6921,1.6926,1.6918,1.693,1.6935,1.6939,1.694,1.694,1.6945,1.6894,1.6894,1.6893,0,0,1.7143,1.7121,1.7119,1.7096,1.708,1.7073,1.7042,1.7036,1.7031,1.6993,1.6987,1.697,1.6947,1.6946,1.6945,1.6933,1.6953,1.6942,1.6945,1.6944,1.6943,1.6948,1.6952,1.6895,1.6895,1.6894,0,0,1.7178,1.7161,1.7163,1.7148,1.7124,1.7103,1.7104,1.7074,1.7061,1.7055,1.7026,1.7019,1.6999,1.6983,1.6973,1.7001,1.6979,1.6998,1.7023,1.7023,1.7028,1.7031,1.704,1.7044,1.7,1.7,1.7,0,1.7207,1.7196,1.7167,1.7163,1.7153,1.7118,1.712,1.7106,1.7079,1.7073,1.706,1.7035,1.7017,1.7012,1.7018,1.7012,1.701,1.7001,1.7029,1.7033,1.7035,1.7043,1.7047,1.7002,1.7002,1.7002,1.7001,0,1.7232,1.7225,1.7229,1.7205,1.7195,1.7194,1.7164,1.7158,1.7138,1.7119,1.7112,1.7089,1.7071,1.7068,1.705,1.706,1.7054,1.7036,1.7013,1.7043,1.705,1.7053,1.7006,1.7005,1.7004,1.7003,0,0,1.7294,1.7253,1.7255,1.7243,1.7214,1.7207,1.7204,1.7186,1.7181,1.7164,1.7159,1.7144,1.7127,1.7115,1.7094,1.7095,1.7117,1.7076,1.7075,1.7084,1.7126,1.7139,1.7143,1.7103,1.7103,1.7103,1.7127,0,1.7323,1.7315,1.7289,1.7289,1.7281,1.7248,1.7245,1.7227,1.7208,1.7198,1.7177,1.7166,1.7146,1.7138,1.7137,1.7115,1.7125,1.7113,1.7097,1.7097,1.7103,1.7147,1.7161,1.7184,1.713,1.7131,1.7131,0,1.7356,1.734,1.734,1.731,1.7306,1.7304,1.7285,1.7277,1.7255,1.7241,1.7228,1.7204,1.7198,1.7178,1.7168,1.716,1.7152,1.714,1.714,1.7137,1.7115,1.7144,1.7191,1.7195,1.7135,1.7135,1.7134,0,1.7399,1.7379,1.7375,1.7366,1.7332,1.7331,1.7317,1.7294,1.7285,1.7268,1.7262,1.7245,1.7235,1.7222,1.7194,1.7183,1.7187,1.7165,1.7175,1.7175,1.7176,1.7176,1.7222,1.7173,1.7173,1.7173,1.7173,0,1.7434,1.7434,1.7394,1.7392,1.7392,1.7361,1.7361,1.7343,1.7323,1.7316,1.7287,1.7281,1.7246,1.7235,1.7214,1.7208,1.7204,1.7192,1.7186,1.7194,1.7196,1.7188,1.7185,1.7174,1.7174,1.7174,1.7173,0,1.7482,1.7456,1.745,1.7418,1.741,1.7411,1.7383,1.7379,1.7359,1.7351,1.7347,1.7315,1.7301,1.7272,1.7251,1.7236,1.7235,1.7225,1.7243,1.7239,1.725,1.7249,1.7291,1.7295,1.7245,1.7245,1.7246,0,1.7505,1.7505,1.7473,1.7467,1.7454,1.7444,1.7434,1.7404,1.7395,1.737,1.7369,1.7353,1.7338,1.7318,1.7292,1.7275,1.7264,1.728,1.7261,1.7269,1.7263,1.7263,1.7262,1.7284,1.7285,1.7285,1.7286,0,1.7549,1.7536,1.7524,1.7507,1.7496,1.7482,1.7465,1.7461,1.7427,1.7418,1.7404,1.7393,1.7371,1.7355,1.7334,1.7318,1.7296,1.7292,1.7293,1.7301,1.7311,1.7304,1.7253,1.7291,1.729,1.729,1.729,1.7289,1.7585,1.7583,1.756,1.7547,1.7531,1.7516,1.7511,1.749,1.7478,1.7458,1.7441,1.7428,1.7405,1.7374,1.736,1.7349,1.7338,1.734,1.734,1.7341,1.7344,1.7313,1.7345,1.7345,1.7345,1.7344,1.7344,0,1.7626,1.761,1.7598,1.7576,1.7566,1.7547,1.7527,1.7519,1.7509,1.7489,1.7476,1.7459,1.7443,1.7416,1.7398,1.7394,1.7383,1.739,1.739,1.7386,1.7355,1.7355,1.7399,1.7399,1.7399,1.7399,1.7399,1.7399,1.7646,1.7641,1.7625,1.7612,1.7595,1.7583,1.7573,1.7559,1.7543,1.7526,1.7513,1.7496,1.7473,1.7453,1.7437,1.743,1.7424,1.7434,1.7423,1.7394,1.7389,1.7384,1.7384,1.7433,1.7433,1.7455,1.7455,1.7455]}]]